This is the latest recevied weather packets stored in our database for station/object WP3OF-3. If no packets are shown the sender has not sent any weather packets the latest 10 day(s).
| Time | Temp. | Humidity | Pressure | Rain* | Wind** | Luminosity | Snow |
|---|---|---|---|---|---|---|---|
| 1777844971 | 26.11° C | 84% | 1017.7 hPa | 0 mm | - | - | - |
| 1777844669 | 26.11° C | 84% | 1017.5 hPa | 0 mm | - | - | - |
| 1777844365 | 26.11° C | 84% | 1017.9 hPa | 0 mm | - | - | - |
| 1777844064 | 26.11° C | 83% | 1017.9 hPa | 0 mm | - | - | - |
| 1777843760 | 26.11° C | 82% | 1018 hPa | 0 mm | - | - | - |
| 1777843458 | 26.11° C | 82% | 1017.8 hPa | 0 mm | - | - | - |
| 1777843155 | 26.11° C | 82% | 1017.8 hPa | 0 mm | - | - | - |
| 1777842852 | 26.67° C | 82% | 1017.7 hPa | 0 mm | - | - | - |
| 1777842548 | 26.67° C | 82% | 1017.7 hPa | 0 mm | - | - | - |
| 1777842245 | 26.67° C | 82% | 1017.6 hPa | 0 mm | - | - | - |
| 1777841944 | 26.67° C | 81% | 1017.7 hPa | 0 mm | - | - | - |
| 1777841642 | 27.22° C | 79% | 1017.7 hPa | 0 mm | - | - | - |
| 1777841338 | 27.22° C | 78% | 1017.5 hPa | 0 mm | - | - | - |
| 1777841035 | 27.22° C | 77% | 1017.5 hPa | 0 mm | - | - | - |
| 1777840733 | 27.22° C | 74% | 1017.5 hPa | 0 mm | - | - | - |
| 1777840430 | 27.78° C | 73% | 1017.5 hPa | 0 mm | - | - | - |
| 1777840127 | 27.22° C | 74% | 1017.5 hPa | 0 mm | - | - | - |
| 1777839825 | 27.78° C | 73% | 1017.3 hPa | 0 mm | - | - | - |
| 1777839523 | 27.78° C | 72% | 1017.5 hPa | 0 mm | - | - | - |
| 1777839220 | 27.78° C | 73% | 1017.4 hPa | 0 mm | - | - | - |
| 1777838918 | 27.78° C | 75% | 1017.5 hPa | 0 mm | - | - | - |
| 1777838612 | 27.78° C | 75% | 1017.8 hPa | 0 mm | - | - | - |
| 1777838310 | 28.33° C | 74% | 1017.6 hPa | 0 mm | - | - | - |
| 1777838007 | 28.33° C | 74% | 1017.7 hPa | 0 mm | - | - | - |
| 1777837704 | 28.33° C | 74% | 1017.8 hPa | 0 mm | - | - | - |
* Rain latest hour (hover to see other rain measurements)
** Current wind speed in m/s (hover to see current wind gust speed)